FW4226 Weather Reports


time (UTC)temp
C
wind
direction
speed
KPH
gust
KPH
rain 1hr
cm
rain 24hr
cm
rain mn
cm
humidity
%
barometer
mb
20260508014458 4 121 0.0 0.0 0.00 0.03 0.00 94 1016.6
20260508013958 4 121 0.0 0.0 0.00 0.03 0.00 94 1016.6
20260508013458 5 121 0.0 0.0 0.00 0.03 0.00 94 1016.7
20260508012457 5 121 0.0 0.0 0.00 0.03 0.00 94 1016.7
20260508011959 5 121 0.0 0.0 0.00 0.03 0.00 94 1016.7
20260508011457 5 121 0.0 0.0 0.00 0.03 0.00 94 1016.7
20260508010959 5 121 0.0 0.0 0.00 0.03 0.00 94 1016.7
20260508010004 5 121 0.0 0.0 0.00 0.03 0.00 94 1016.8
20260508005457 5 121 0.0 0.0 0.00 0.03 0.00 94 1016.8
20260508004500 5 121 0.0 0.0 0.00 0.03 0.00 94 1016.7
20260508003958 6 121 0.0 0.0 0.00 0.03 0.00 94 1016.7
20260508003457 6 121 0.0 0.0 0.00 0.03 0.00 94 1016.7
20260508002957 6 121 0.0 0.0 0.00 0.03 0.00 93 1016.8
20260508002456 6 121 0.0 0.0 0.00 0.03 0.00 94 1016.8
20260508001957 6 121 0.0 0.0 0.00 0.03 0.00 94 1016.8
20260508001457 6 121 0.0 0.0 0.00 0.03 0.00 94 1016.8
20260508000957 6 121 0.0 0.0 0.00 0.03 0.00 93 1016.9
20260508000001 6 121 0.0 0.0 0.00 0.03 0.00 93 1016.9
20260507235457 6 121 0.0 0.0 0.00 0.03 0.00 93 1016.9
20260507235002 6 121 0.0 0.0 0.00 0.03 0.00 92 1017.0
20260507234501 7 121 0.0 0.0 0.00 0.03 0.00 93 1016.9
20260507234002 7 121 0.0 0.0 0.00 0.03 0.00 92 1017.0
20260507233501 7 121 0.0 0.0 0.00 0.03 0.00 92 1017.0
20260507233002 7 121 0.0 0.0 0.00 0.03 0.00 92 1016.9
20260507232501 8 121 0.0 0.0 0.00 0.03 0.00 93 1016.9
20260507232002 8 121 0.0 0.0 0.00 0.03 0.00 93 1016.9
20260507231502 8 121 0.0 0.0 0.00 0.03 0.00 93 1016.8
20260507231003 8 121 0.0 0.0 0.00 0.03 0.00 93 1016.8
20260507230502 8 121 0.0 0.0 0.00 0.03 0.00 93 1016.9
20260507225502 8 121 0.0 0.0 0.00 0.03 0.03 92 1016.9
20260507225003 8 121 0.0 0.0 0.00 0.03 0.03 92 1016.9
20260507224502 8 121 0.0 0.0 0.00 0.03 0.03 92 1016.9
20260507224003 8 121 0.0 0.0 0.00 0.03 0.03 92 1017.0
20260507223502 8 121 0.0 0.0 0.00 0.03 0.03 92 1017.0
20260507223003 8 121 0.0 0.0 0.00 0.03 0.03 92 1017.1
20260507222503 8 121 0.0 0.0 0.00 0.03 0.03 91 1017.1
20260507222002 8 121 0.0 0.0 0.00 0.03 0.03 91 1017.1
20260507221501 8 121 0.0 0.0 0.00 0.03 0.03 91 1017.2
20260507220502 9 121 0.0 0.0 0.00 0.03 0.03 91 1017.1
20260507220007 9 121 0.0 0.0 0.00 0.03 0.03 90 1017.1
20260507215001 9 121 0.0 0.0 0.03 0.03 0.03 90 1017.2
20260507214502 9 121 0.0 0.0 0.03 0.03 0.03 89 1017.2
20260507214001 10 121 0.0 0.0 0.03 0.03 0.03 89 1017.1
20260507213501 10 121 0.0 0.0 0.03 0.03 0.03 89 1017.3
20260507213005 10 121 0.0 0.0 0.03 0.03 0.03 88 1017.2
20260507212500 10 121 0.0 0.0 0.03 0.03 0.03 88 1017.1
20260507212001 10 121 0.0 0.0 0.03 0.03 0.03 87 1017.0
20260507211500 10 121 0.0 0.0 0.03 0.03 0.03 87 1017.1
20260507210500 10 121 0.0 0.0 0.03 0.03 0.03 84 1017.0
20260507210006 11 121 0.0 0.0 0.03 0.03 0.03 83 1016.9
20260507205501 11 121 0.0 0.0 0.00 0.00 0.00 82 1016.9
20260507205000 11 121 0.0 0.0 0.00 0.00 0.00 81 1016.9
20260507204505 11 121 0.0 0.0 0.00 0.00 0.00 80 1016.8
20260507204000 11 121 0.0 0.0 0.00 0.00 0.00 80 1016.7
20260507203500 11 120 0.0 0.0 0.00 0.00 0.00 79 1016.7
20260507203001 11 126 0.0 1.6 0.00 0.00 0.00 79 1016.7
20260507202501 11 127 0.0 1.6 0.00 0.00 0.00 79 1016.6
20260507202001 11 126 0.0 1.6 0.00 0.00 0.00 79 1016.5
20260507200501 12 97 0.0 4.8 0.00 0.00 0.00 76 1016.3
20260507200005 12 146 1.6 4.8 0.00 0.00 0.00 74 1016.2
20260507195500 12 130 1.6 6.4 0.00 0.00 0.00 74 1016.2
20260507195001 12 204 1.6 6.4 0.00 0.00 0.00 73 1016.2
20260507194501 12 190 1.6 6.4 0.00 0.00 0.00 73 1016.0
20260507194000 12 142 1.6 6.4 0.00 0.00 0.00 73 1016.0
20260507193501 12 158 1.6 6.4 0.00 0.00 0.00 74 1016.0
20260507193003 12 149 1.6 8.0 0.00 0.00 0.00 74 1016.0
20260507192500 12 133 1.6 8.0 0.00 0.00 0.00 73 1015.9
20260507192000 12 185 1.6 6.4 0.00 0.00 0.00 73 1015.9
20260507191001 12 169 1.6 4.8 0.00 0.00 0.00 71 1015.9
20260507190501 12 129 3.2 6.4 0.00 0.00 0.00 70 1015.8
20260507190006 12 168 3.2 9.7 0.00 0.00 0.00 69 1015.8
20260507184501 12 180 1.6 6.4 0.00 0.00 0.00 68 1015.7
20260507184003 12 146 1.6 6.4 0.00 0.00 0.00 68 1015.7
20260507183500 13 161 3.2 6.4 0.00 0.00 0.00 67 1015.8
20260507183001 13 145 3.2 8.0 0.00 0.00 0.00 67 1015.8
20260507182500 13 166 3.2 8.0 0.00 0.00 0.00 66 1015.8
20260507182001 13 158 3.2 8.0 0.00 0.00 0.00 66 1015.7
20260507181501 13 195 3.2 8.0 0.00 0.00 0.00 66 1015.7
20260507180500 13 142 3.2 11.3 0.00 0.00 0.00 66 1015.6
20260507180004 13 106 3.2 9.7 0.00 0.00 0.00 66 1015.5
20260507175500 13 139 1.6 9.7 0.00 0.00 0.00 65 1015.5
20260507175000 13 86 3.2 8.0 0.00 0.00 0.00 64 1015.5
20260507174502 13 64 4.8 9.7 0.00 0.00 0.00 64 1015.4
20260507173501 13 168 3.2 8.0 0.00 0.00 0.00 63 1015.4
20260507173001 13 175 3.2 8.0 0.00 0.00 0.00 63 1015.4
20260507172500 13 180 3.2 8.0 0.00 0.00 0.00 61 1015.4
20260507172001 14 151 3.2 8.0 0.00 0.00 0.00 60 1015.4
20260507171502 14 143 3.2 8.0 0.00 0.00 0.00 60 1015.4
20260507171001 14 115 3.2 8.0 0.00 0.00 0.00 59 1015.4
20260507170500 14 167 3.2 8.0 0.00 0.00 0.00 59 1015.4
20260507165500 14 147 3.2 9.7 0.00 0.00 0.00 57 1015.4
20260507165001 15 116 3.2 9.7 0.00 0.00 0.00 57 1015.4
20260507164500 15 138 1.6 6.4 0.00 0.00 0.00 56 1015.4
20260507163004 15 122 3.2 6.4 0.00 0.00 0.00 56 1015.5
20260507162501 15 141 3.2 11.3 0.00 0.00 0.00 54 1015.4
20260507162000 15 157 1.6 11.3 0.00 0.00 0.00 52 1015.4
20260507161500 15 114 1.6 8.0 0.00 0.00 0.00 53 1015.3
20260507161000 15 131 1.6 8.0 0.00 0.00 0.00 55 1015.4
20260507160501 15 147 3.2 8.0 0.00 0.00 0.00 53 1015.4
20260507155001 15 147 0.0 3.2 0.00 0.00 0.00 50 1015.5
20260507154501 16 154 0.0 3.2 0.00 0.00 0.00 51 1015.4
20260507154005 16 204 1.6 6.4 0.00 0.00 0.00 52 1015.5
20260507153501 16 323 3.2 8.0 0.00 0.00 0.00 48 1015.4
20260507153001 16 179 3.2 8.0 0.00 0.00 0.00 49 1015.4
20260507152501 16 150 1.6 6.4 0.00 0.00 0.00 50 1015.3
20260507152001 16 156 1.6 6.4 0.00 0.00 0.00 52 1015.4
20260507151500 16 74 1.6 4.8 0.00 0.00 0.00 53 1015.5
20260507151001 15 128 3.2 8.0 0.00 0.00 0.00 52 1015.5
20260507150500 15 171 1.6 8.0 0.00 0.00 0.00 51 1015.6
20260507150006 16 100 1.6 6.4 0.00 0.00 0.00 52 1015.4
20260507145501 15 141 0.0 3.2 0.00 0.00 0.00 47 1015.4
20260507145001 15 42 0.0 1.6 0.00 0.00 0.00 48 1015.6
20260507144501 15 143 0.0 3.2 0.00 0.00 0.00 50 1015.5
20260507144002 15 153 0.0 3.2 0.00 0.00 0.00 50 1015.5
20260507143501 15 160 0.0 1.6 0.00 0.00 0.00 50 1015.5
20260507142501 15 135 1.6 3.2 0.00 0.00 0.00 47 1015.6
20260507142000 15 199 0.0 3.2 0.00 0.00 0.00 47 1015.6
20260507141501 15 4 0.0 1.6 0.00 0.00 0.00 48 1015.7
20260507140501 15 5 0.0 3.2 0.00 0.00 0.00 47 1015.7
20260507140006 16 144 0.0 3.2 0.00 0.00 0.00 48 1015.7
20260507135459 16 249 1.6 3.2 0.00 0.00 0.00 49 1015.8
20260507135001 15 220 1.6 8.0 0.00 0.00 0.00 48 1015.8
20260507134500 16 178 1.6 8.0 0.00 0.00 0.00 48 1015.9
20260507134000 16 138 0.0 4.8 0.00 0.00 0.00 46 1015.8
20260507133502 16 206 1.6 4.8 0.00 0.00 0.00 48 1015.8
20260507132501 16 218 0.0 4.8 0.00 0.00 0.00 47 1015.8
20260507132001 16 178 1.6 8.0 0.00 0.00 0.00 48 1015.8
20260507131000 16 131 1.6 4.8 0.00 0.00 0.00 50 1015.9
20260507130500 15 145 1.6 4.8 0.00 0.00 0.00 51 1015.9
20260507130004 15 131 1.6 4.8 0.00 0.00 0.00 52 1016.0
20260507125459 14 228 0.0 0.0 0.00 0.00 0.00 53 1016.0
20260507125000 14 228 0.0 0.0 0.00 0.00 0.00 55 1016.1
20260507124500 14 147 0.0 0.0 0.00 0.00 0.00 53 1016.1
20260507124000 14 147 0.0 0.0 0.00 0.00 0.00 55 1016.1
20260507123459 14 147 0.0 0.0 0.00 0.00 0.00 56 1016.1
20260507122959 14 147 0.0 1.6 0.00 0.00 0.00 56 1016.2
20260507122500 14 7 0.0 1.6 0.00 0.00 0.00 52 1016.2
20260507121959 15 28 0.0 1.6 0.00 0.00 0.00 52 1016.2
20260507121000 15 166 3.2 8.0 0.00 0.00 0.00 55 1016.2
20260507120459 15 52 1.6 8.0 0.00 0.00 0.00 56 1016.1
20260507120004 14 140 1.6 4.8 0.00 0.00 0.00 55 1016.2
20260507115500 13 180 0.0 3.2 0.00 0.00 0.00 55 1016.2
20260507115001 13 88 0.0 0.0 0.00 0.00 0.00 58 1016.2
20260507114502 13 88 0.0 0.0 0.00 0.00 0.00 59 1016.2
20260507114001 13 88 0.0 0.0 0.00 0.00 0.00 56 1016.1
20260507113501 13 133 0.0 0.0 0.00 0.00 0.00 56 1016.2
20260507113001 13 255 0.0 6.4 0.00 0.00 0.00 55 1016.3
20260507112501 13 19 1.6 6.4 0.00 0.00 0.00 58 1016.3
20260507112001 13 114 3.2 6.4 0.00 0.00 0.00 55 1016.5
20260507111500 14 148 3.2 6.4 0.00 0.00 0.00 57 1016.3
20260507111004 14 166 1.6 6.4 0.00 0.00 0.00 55 1016.3
20260507110502 14 211 0.0 0.0 0.00 0.00 0.00 57 1016.4
20260507110003 14 123 1.6 6.4 0.00 0.00 0.00 56 1016.5
20260507105459 14 83 3.2 6.4 0.00 0.00 0.00 54 1016.4
20260507104459 15 165 1.6 6.4 0.00 0.00 0.00 54 1016.4
20260507103959 15 152 1.6 6.4 0.00 0.00 0.00 53 1016.4
20260507103458 14 81 1.6 8.0 0.00 0.00 0.00 57 1016.5
20260507102959 13 120 3.2 8.0 0.00 0.00 0.00 61 1016.5
20260507102459 13 232 1.6 4.8 0.00 0.00 0.00 63 1016.5
20260507101959 13 143 3.2 6.4 0.00 0.00 0.00 65 1016.6
20260507101458 13 133 3.2 8.0 0.00 0.00 0.00 63 1016.7
20260507100959 13 151 1.6 8.0 0.00 0.00 0.00 62 1016.6
20260507100459 13 135 1.6 4.8 0.00 0.00 0.00 65 1016.7
20260507100005 13 164 1.6 4.8 0.00 0.00 0.00 63 1016.6
20260507095458 12 114 1.6 3.2 0.00 0.00 0.00 66 1016.6
20260507094959 12 190 0.0 3.2 0.00 0.00 0.00 70 1016.6
20260507094459 12 139 0.0 3.2 0.00 0.00 0.00 71 1016.6
20260507093959 12 216 0.0 4.8 0.00 0.00 0.00 71 1016.8
20260507092959 12 260 1.6 3.2 0.00 0.00 0.00 69 1016.7
20260507092459 12 201 1.6 4.8 0.00 0.00 0.00 67 1016.6
20260507091959 12 95 3.2 4.8 0.00 0.00 0.00 70 1016.7
20260507091458 12 173 3.2 9.7 0.00 0.00 0.00 70 1016.7
20260507090003 11 63 1.6 6.4 0.00 0.00 0.00 76 1016.7
20260507084958 10 143 0.0 1.6 0.00 0.00 0.00 79 1016.7
20260507084459 10 143 0.0 4.8 0.00 0.00 0.00 80 1016.8
20260507084000 10 143 1.6 4.8 0.00 0.00 0.00 80 1016.7
20260507082959 11 166 1.6 4.8 0.00 0.00 0.00 81 1016.8
20260507082459 10 58 0.0 3.2 0.00 0.00 0.00 83 1016.6
20260507081959 10 107 0.0 0.0 0.00 0.00 0.00 87 1016.8
20260507081459 9 90 0.0 0.0 0.00 0.00 0.00 88 1016.7
20260507080958 9 90 0.0 0.0 0.00 0.00 0.00 89 1016.7
20260507080459 9 90 0.0 0.0 0.00 0.00 0.00 89 1016.7
20260507080004 9 90 0.0 0.0 0.00 0.00 0.00 89 1016.7
20260507075459 9 21 0.0 0.0 0.00 0.00 0.00 92 1016.6
20260507074959 8 31 0.0 0.0 0.00 0.00 0.00 94 1016.6
20260507074500 8 31 0.0 0.0 0.00 0.00 0.00 93 1016.6
20260507073959 7 31 0.0 0.0 0.00 0.00 0.00 93 1016.7
20260507073458 7 31 0.0 0.0 0.00 0.00 0.00 93 1016.5
20260507072958 7 31 0.0 0.0 0.00 0.00 0.00 93 1016.6
20260507072459 7 31 0.0 0.0 0.00 0.00 0.00 94 1016.6
20260507071000 7 31 0.0 0.0 0.00 0.00 0.00 95 1016.6
20260507070458 7 31 0.0 0.0 0.00 0.00 0.00 95 1016.6
20260507065001 6 22 0.0 0.0 0.00 0.00 0.00 95 1016.7
20260507064459 6 22 0.0 0.0 0.00 0.00 0.00 95 1016.6
20260507062959 5 22 0.0 0.0 0.00 0.00 0.00 95 1016.6
20260507062459 5 22 0.0 0.0 0.00 0.00 0.00 95 1016.6
20260507062001 5 22 0.0 0.0 0.00 0.00 0.00 95 1016.5
20260507061459 5 22 0.0 0.0 0.00 0.00 0.00 95 1016.5
20260507061000 4 22 0.0 0.0 0.00 0.00 0.00 95 1016.4
20260507060459 4 22 0.0 0.0 0.00 0.00 0.00 95 1016.3
20260507060001 3 22 0.0 0.0 0.00 0.00 0.00 95 1016.3
20260507055457 3 22 0.0 0.0 0.00 0.00 0.00 95 1016.4
20260507054958 3 22 0.0 0.0 0.00 0.00 0.00 95 1016.4
20260507054457 3 22 0.0 0.0 0.00 0.00 0.00 95 1016.4
20260507053958 3 22 0.0 0.0 0.00 0.00 0.00 95 1016.3
20260507053458 3 22 0.0 0.0 0.00 0.00 0.00 95 1016.3
20260507053003 2 22 0.0 0.0 0.00 0.00 0.00 95 1016.3
20260507052458 2 22 0.0 0.0 0.00 0.00 0.00 95 1016.2
20260507051959 2 22 0.0 0.0 0.00 0.00 0.00 95 1016.3
20260507051500 2 22 0.0 0.0 0.00 0.00 0.00 95 1016.2
20260507050959 2 22 0.0 0.0 0.00 0.00 0.00 95 1016.3
20260507050500 2 22 0.0 0.0 0.00 0.00 0.00 95 1016.2
20260507050006 1 22 0.0 0.0 0.00 0.00 0.00 95 1016.2
20260507045000 1 22 0.0 0.0 0.00 0.00 0.00 95 1016.0
20260507043957 0 22 0.0 0.0 0.00 0.00 0.00 94 1016.0
20260507043458 0 22 0.0 0.0 0.00 0.00 0.00 94 1016.0
20260507042958 0 22 0.0 0.0 0.00 0.00 0.00 93 1015.9
20260507042457 0 22 0.0 0.0 0.00 0.00 0.00 93 1015.9
20260507041958 0 22 0.0 0.0 0.00 0.00 0.00 93 1016.0
20260507041458 0 22 0.0 0.0 0.00 0.00 0.00 93 1016.0
20260507040957 0 22 0.0 0.0 0.00 0.00 0.00 93 1016.0
20260507040458 0 22 0.0 0.0 0.00 0.00 0.00 93 1015.9
20260507034958 1 22 0.0 0.0 0.00 0.00 0.00 93 1016.0
20260507034458 1 22 0.0 0.0 0.00 0.00 0.00 93 1016.1
20260507033959 1 22 0.0 0.0 0.00 0.00 0.00 93 1016.1
20260507033458 1 22 0.0 0.0 0.00 0.00 0.00 93 1016.0
20260507032458 1 22 0.0 0.0 0.00 0.00 0.00 92 1016.1
20260507031958 1 22 0.0 0.0 0.00 0.00 0.00 92 1016.1
20260507031458 1 22 0.0 0.0 0.00 0.00 0.00 92 1016.2
20260507030959 1 22 0.0 0.0 0.00 0.00 0.00 92 1016.2
20260507030457 2 22 0.0 0.0 0.00 0.00 0.00 92 1016.1
20260507025458 2 22 0.0 0.0 0.00 0.00 0.00 92 1016.1
20260507024957 2 22 0.0 0.0 0.00 0.00 0.00 92 1016.0
20260507022958 2 22 0.0 0.0 0.00 0.00 0.00 93 1016.1
20260507022458 2 22 0.0 0.0 0.00 0.00 0.00 93 1016.1
20260507021958 2 22 0.0 0.0 0.00 0.00 0.00 93 1016.1
20260507021500 2 22 0.0 0.0 0.00 0.00 0.00 93 1016.0
20260507020958 2 22 0.0 0.0 0.00 0.00 0.00 93 1016.0
20260507020500 1 22 0.0 0.0 0.00 0.00 0.00 93 1016.0
20260507020002 1 22 0.0 1.6 0.00 0.00 0.00 93 1016.0